Weather History for Rifle, CO

Change the Weather History Date:

Wednesday, June 26, 2013

  Actual Average Record
Temperature  
Mean Temperature 73 °F 70 °F  
Max Temperature 94 °F 89 °F 100 °F (1990)
Min Temperature 51 °F 51 °F 32 °F (1975)
Degree Days  
Heating Degree Days 0 0  
Month to date heating degree days 13 57  
Since 1 June heating degree days 13 57  
Since 1 July heating degree days 6694 6623  
Cooling Degree Days 8 5  
Month to date cooling degree days 101 73  
Year to date cooling degree days 108 80  
Since 1 June cooling degree days 101 73  
Growing Degree Days 22 (Base 50)    
Moisture  
Dew Point 33 °F    
Average Humidity 27    
Maximum Humidity 45    
Minimum Humidity 9    
Precipitation  
Precipitation 0.00 in 0.02 in 1.19 in (1954)
Month to date precipitation T 0.96  
Year to date precipitation 3.99 6.38  
Sea Level Pressure  
Sea Level Pressure 29.94 in    
Wind  
Wind Speed 6 mph (West)    
Max Wind Speed 23 mph    
Max Gust Speed 29 mph    
Visibility 10 miles    
Events      
T = Trace of Precipitation, MM = Missing Value Source: NWS Daily Summary

Daily Weather History Graph

Daily Weather History Graph

Search for Another Location

Airport:

Trip Planner

Search our weather history database for the weather conditions in past years. The results will help you decide how hot, cold, wet, or windy it might be!

Date:

Astronomy

Jun. 26, 2013 Rise Set
Actual Time 5:45 AM MDT 8:42 PM MDT
Civil Twilight 5:12 AM MDT 9:14 PM MDT
Nautical Twilight 4:31 AM MDT 9:55 PM MDT
Astronomical Twilight 3:44 AM MDT 10:43 PM MDT
Moon 11:08 PM MDT 9:39 AM MDT
Length of Visible Light 16h 01m
Length of Day
14h 56m
Waning Gibbous, 85% of the Moon is Illuminated
Jun 26
Waning Gibbous
Jun 29
Last Quarter
Jul 8
New
Jul 15
First Quarter
Jul 22
Full

Hourly Weather History & Observations

Time (MDT) Temp. Dew Point Humidity Pressure Visibility Wind Dir Wind Speed Gust Speed Precip Events Conditions
12:53 AM 64.0 °F 35.1 °F 34% 29.90 in 10.0 mi SE 3.5 mph - N/A   Clear
1:53 AM 62.1 °F 33.1 °F 34% 29.91 in 10.0 mi Calm Calm - N/A   Clear
2:53 AM 57.9 °F 35.1 °F 42% 29.92 in 10.0 mi Calm Calm - N/A   Clear
3:53 AM 55.9 °F 32.0 °F 40% 29.93 in 10.0 mi SSE 3.5 mph - N/A   Clear
4:53 AM 53.1 °F 32.0 °F 45% 29.96 in 10.0 mi Calm Calm - N/A   Clear
5:53 AM 52.0 °F 30.9 °F 45% 29.99 in 10.0 mi Calm Calm - N/A   Clear
6:53 AM 57.0 °F 34.0 °F 42% 29.99 in 10.0 mi Calm Calm - N/A   Clear
7:53 AM 61.0 °F 37.0 °F 41% 30.00 in 10.0 mi Calm Calm - N/A   Clear
8:53 AM 68.0 °F 37.9 °F 33% 30.00 in 10.0 mi Calm Calm - N/A   Clear
9:53 AM 73.9 °F 37.0 °F 26% 30.00 in 10.0 mi Variable 3.5 mph - N/A   Clear
10:53 AM 80.1 °F 36.0 °F 20% 29.99 in 10.0 mi NNE 4.6 mph - N/A   Clear
11:53 AM 84.0 °F 35.1 °F 17% 29.96 in 10.0 mi NW 10.4 mph - N/A   Clear
12:53 PM 89.1 °F 35.1 °F 15% 29.94 in 10.0 mi Variable 3.5 mph 20.7 mph N/A   Clear
1:53 PM 91.0 °F 35.1 °F 14% 29.91 in 10.0 mi West 12.7 mph 20.7 mph N/A   Clear
2:53 PM 91.0 °F 32.0 °F 12% 29.91 in 10.0 mi West 18.4 mph 24.2 mph N/A   Partly Cloudy
3:53 PM 93.0 °F 28.0 °F 10% 29.90 in 10.0 mi West 17.3 mph 23.0 mph N/A   Clear
4:53 PM 93.9 °F 27.0 °F 9% 29.90 in 10.0 mi West 15.0 mph 25.3 mph N/A   Clear
5:53 PM 93.0 °F 28.9 °F 10% 29.89 in 10.0 mi WNW 13.8 mph - N/A   Clear
6:53 PM 91.9 °F 28.0 °F 10% 29.88 in 10.0 mi WNW 10.4 mph - N/A   Clear
7:53 PM 91.0 °F 28.0 °F 10% 29.88 in 10.0 mi West 5.8 mph - N/A   Clear
8:53 PM 84.0 °F 28.9 °F 14% 29.90 in 10.0 mi Calm Calm - N/A   Clear
9:53 PM 75.0 °F 28.0 °F 18% 29.94 in 10.0 mi SSE 6.9 mph - N/A   Clear
10:53 PM 72.0 °F 37.0 °F 28% 29.96 in 10.0 mi ESE 9.2 mph - N/A   Clear
11:53 PM 71.1 °F 36.0 °F 28% 29.97 in 10.0 mi ESE 10.4 mph - N/A   Clear